Regional Weather Roundup
Issued by NWS

Home | Current Version | Previous Version | Text Only | Print | Product List | Glossary Off
Versions: 1 2 3 4 5 6 7 8 9 10 11 12 13 14 15 16 17 18 19 20 21 22 23 24 25 26 27 28 29 30 31 32 33 34 35 36 37 38 39 40 41 42 43 44 45 46 47 48 49 50

000
ASUS45 KCYS 110610
RWRWY

WYOMING REGIONAL WEATHER ROUNDUP
NATIONAL WEATHER SERVICE CHEYENNE WY
1200 AM MDT FRI JUL 11 2014

NOTE:  "FAIR" INDICATES FEW OR NO CLOUDS BELOW 12,000 FEET
WITH NO SIGNIFICANT WEATHER AND/OR OBSTRUCTIONS TO VISIBILITY.

WYZ001-110700-
YELLOWSTONE NATIONAL PARK

CITY           SKY/WX    TMP DP  RH WIND       PRES   REMARKS
LK YELLOWSTONE   N/A     50  45  83 CALM      30.27S
6HR MIN TEMP:  49; 6HR MAX TEMP:  73;

W YELLOWSTONE  NOT AVBL

$$
WYZ002>013-054>058-071-098>099-110700-
NORTHERN WYOMING

CITY           SKY/WX    TMP DP  RH WIND       PRES   REMARKS
JACKSON        CLEAR     57  50  77 E5        30.15S
CODY           MOCLDY    66  57  72 S6        30.05F
GREYBULL       PTCLDY    68  55  63 CALM      29.97R
6HR MIN TEMP:  68; 6HR MAX TEMP:  85; 6HR PCP:  0.01;

WORLAND        PTCLDY    67  55  65 VRB3      29.97S
6HR MIN TEMP:  67; 6HR MAX TEMP:  82;

SHERIDAN       CLEAR     59  52  77 SW6       29.96S
6HR MIN TEMP:  59; 6HR MAX TEMP:  80;

BUFFALO        PTCLDY    67  53  61 W8        30.05S
6HR MIN TEMP:  67; 6HR MAX TEMP:  79; 6HR PCP: TRACE;

GILLETTE       MOCLDY    70  56  61 S10       29.99S
6HR MIN TEMP:  69; 6HR MAX TEMP:  86;

HULETT         FAIR      68  59  73 MISG      30.01
NEWCASTLE      FAIR      63  59  88 CALM      30.03

$$
WYZ014>020-022>026-101>103-110700-
CENTRAL WYOMING

CITY           SKY/WX    TMP DP  RH WIND       PRES   REMARKS
BIG PINEY      PTCLDY    60  54  80 S6        30.22F
6HR MIN TEMP:  60; 6HR MAX TEMP:  79;

PINEDALE       PTCLDY    59  52  77 E7        30.25R
DUBOIS         FAIR      59  45  58 CALM      30.20R
LANDER         CLOUDY    70  54  56 NW8       30.05F
6HR MIN TEMP:  69; 6HR MAX TEMP:  84; 6HR PCP: TRACE;

RIVERTON       PTCLDY    70  53  54 SW10      30.07S
6HR MIN TEMP:  69; 6HR MAX TEMP:  83;

CASPER         MOCLDY    65  55  70 SW9       30.07S
6HR MIN TEMP:  61; 6HR MAX TEMP:  75; 6HR PCP: TRACE;

DOUGLAS        CLOUDY    66  61  84 E6        30.06F
6HR MIN TEMP:  66; 6HR MAX TEMP:  71; 6HR PCP: TRACE;


$$
WYZ021-027>030-104>119-110700-
SOUTHERN WYOMING

CITY           SKY/WX    TMP DP  RH WIND       PRES   REMARKS
EVANSTON       CLOUDY    57  54  89 SW18      30.25R
6HR MIN TEMP:  57; 6HR MAX TEMP:  73; 6HR PCP:  0.12;

KEMMERER       MOCLDY    61  50  67 S5        30.26R
FORT BRIDGER   FAIR      61  53  76 SW8       30.26R
ROCK SPRINGS   CLOUDY    62  54  74 W13       30.20F
6HR MIN TEMP:  62; 6HR MAX TEMP:  68; 6HR PCP: TRACE;

DIXON          MOCLDY    63  54  73 E8        30.22S
RAWLINS        CLOUDY    61  57  87 CALM      30.21S
6HR MIN TEMP:  61; 6HR MAX TEMP:  77; 6HR PCP:  0.01;

SARATOGA       FAIR      55  52  88 SE6       30.24S
LARAMIE        MOCLDY    57  56  96 SW7       30.23F
6HR MIN TEMP:  57; 6HR MAX TEMP:  76; 6HR PCP:  0.06;

CHEYENNE       CLOUDY    66  56  70 VRB3      30.14F
6HR MIN TEMP:  65; 6HR MAX TEMP:  85; 6HR PCP: TRACE;

TORRINGTON     MOCLDY    67  64  90 SW7       30.03R
6HR MIN TEMP:  66; 6HR MAX TEMP:  81; 6HR PCP:  0.07;


$$


USA.gov is the U.S. government's official web portal to all federal, state and local government web resources and services.